When you browse on this site, cookies collect data to enhance your experience and personalize the content and advertising you see.
Visit our Privacy Policy to learn more. By continuing to use the site, you agree to this use of cookies and data.
  • In Romania
  • List of Countries
  • For 7 days
  • Water Temperature
  • Satellite Maps
  • Weather Map
  • Weather Widgets
  • user-avatar
    Login

    Hourly Weather Niezwojowice

    Today, 27 June, Thursday

    Time Temperature Precipitation Wind Pressure Humidity
    00:00 +26°C° 0.3 mm 5 mps 742 mmHg 80%
    01:00 +25°C° 0.3 mm 5 mps 741 mmHg 82%
    02:00 +25°C° 0.5 mm 5 mps 741 mmHg 85%
    03:00 +23°C° 0.5 mm 5 mps 741 mmHg 89%
    04:00 +23°C° 0.5 mm 5 mps 741 mmHg 92%
    05:00 +23°C° 0.3 mm 5 mps 741 mmHg 89%
    06:00 +23°C° 0.3 mm 6 mps 741 mmHg 86%
    07:00 +23°C° 0.3 mm 6 mps 741 mmHg 84%
    08:00 +24°C° 0 mm 6 mps 741 mmHg 78%
    09:00 +24°C° 0 mm 7 mps 742 mmHg 72%
    10:00 +26°C° 0 mm 7 mps 742 mmHg 66%
    11:00 +26°C° 0 mm 7 mps 742 mmHg 61%
    12:00 +26°C° 0 mm 8 mps 742 mmHg 55%
    13:00 +26°C° 0 mm 8 mps 742 mmHg 50%
    14:00 +24°C° 0 mm 7 mps 741 mmHg 51%
    15:00 +24°C° 0 mm 7 mps 741 mmHg 52%
    16:00 +23°C° 0 mm 7 mps 741 mmHg 53%
    17:00 +22°C° 0 mm 6 mps 741 mmHg 58%
    18:00 +21°C° 0 mm 5 mps 741 mmHg 63%
    19:00 +19°C° 0 mm 4 mps 740 mmHg 68%
    20:00 +18°C° 0 mm 4 mps 741 mmHg 71%
    21:00 +17°C° 0 mm 4 mps 741 mmHg 73%
    22:00 +17°C° 0 mm 3 mps 742 mmHg 75%
    23:00 +16°C° 0 mm 3 mps 742 mmHg 81%

    Tomorrow, 28 June, Friday

    Time Temperature Precipitation Wind Pressure Humidity
    00:00 +14°C° 0 mm 3 mps 742 mmHg 87%
    01:00 +14°C° 0 mm 3 mps 742 mmHg 92%
    02:00 +13°C° 0 mm 3 mps 742 mmHg 94%
    03:00 +13°C° 0 mm 4 mps 742 mmHg 95%
    04:00 +13°C° 0 mm 4 mps 742 mmHg 97%
    05:00 +14°C° 0 mm 4 mps 743 mmHg 89%
    06:00 +15°C° 0 mm 4 mps 743 mmHg 81%
    07:00 +17°C° 0 mm 4 mps 743 mmHg 74%
    08:00 +18°C° 0 mm 4 mps 743 mmHg 67%
    09:00 +19°C° 0 mm 5 mps 743 mmHg 60%
    10:00 +20°C° 0 mm 5 mps 743 mmHg 53%
    11:00 +21°C° 0 mm 5 mps 743 mmHg 52%
    12:00 +21°C° 0 mm 5 mps 743 mmHg 52%
    13:00 +22°C° 0 mm 5 mps 743 mmHg 51%
    14:00 +22°C° 0 mm 5 mps 743 mmHg 53%
    15:00 +22°C° 0 mm 4 mps 743 mmHg 54%
    16:00 +22°C° 0 mm 4 mps 743 mmHg 56%
    17:00 +21°C° 0.2 mm 4 mps 743 mmHg 64%
    18:00 +20°C° 0.2 mm 3 mps 742 mmHg 72%
    19:00 +19°C° 0.2 mm 2 mps 742 mmHg 80%
    20:00 +17°C° 0.1 mm 2 mps 743 mmHg 84%
    21:00 +16°C° 0.1 mm 2 mps 743 mmHg 87%
    22:00 +15°C° 0.1 mm 2 mps 743 mmHg 90%
    23:00 +13°C° 0 mm 3 mps 743 mmHg 89%

    Day after tomorrow, 29 June, Saturday

    Time Temperature Precipitation Wind Pressure Humidity
    00:00 +12°C° 0 mm 3 mps 743 mmHg 88%
    01:00 +11°C° 0 mm 3 mps 744 mmHg 86%
    02:00 +10°C° 0 mm 3 mps 744 mmHg 87%
    03:00 +10°C° 0 mm 3 mps 744 mmHg 87%
    04:00 +9°C° 0 mm 2 mps 744 mmHg 87%
    05:00 +12°C° 0 mm 2 mps 744 mmHg 81%
    06:00 +14°C° 0 mm 2 mps 744 mmHg 74%
    07:00 +15°C° 0 mm 2 mps 744 mmHg 68%
    08:00 +17°C° 0 mm 2 mps 744 mmHg 62%
    09:00 +19°C° 0 mm 2 mps 744 mmHg 57%
    10:00 +20°C° 0 mm 2 mps 745 mmHg 51%
    11:00 +21°C° 0 mm 2 mps 744 mmHg 50%
    12:00 +23°C° 0 mm 2 mps 744 mmHg 48%
    13:00 +24°C° 0 mm 2 mps 744 mmHg 47%
    14:00 +24°C° 0 mm 2 mps 743 mmHg 47%
    15:00 +24°C° 0 mm 2 mps 743 mmHg 48%
    16:00 +24°C° 0 mm 2 mps 743 mmHg 49%
    17:00 +23°C° 0 mm 2 mps 743 mmHg 54%
    18:00 +21°C° 0 mm 2 mps 743 mmHg 60%
    19:00 +20°C° 0 mm 2 mps 743 mmHg 65%
    20:00 +19°C° 0 mm 2 mps 743 mmHg 67%
    21:00 +18°C° 0 mm 2 mps 743 mmHg 69%
    22:00 +16°C° 0 mm 2 mps 743 mmHg 71%
    23:00 +16°C° 0 mm 2 mps 743 mmHg 71%

    30 June, Sunday

    Time Temperature Precipitation Wind Pressure Humidity
    00:00 +16°C° 0 mm 2 mps 743 mmHg 71%
    01:00 +15°C° 0 mm 2 mps 743 mmHg 71%
    02:00 +15°C° 0 mm 2 mps 742 mmHg 71%
    03:00 +15°C° 0 mm 2 mps 742 mmHg 71%
    04:00 +15°C° 0 mm 2 mps 742 mmHg 71%
    05:00 +17°C° 0 mm 2 mps 742 mmHg 68%
    06:00 +19°C° 0 mm 2 mps 743 mmHg 65%
    07:00 +21°C° 0 mm 2 mps 743 mmHg 62%
    08:00 +24°C° 0 mm 2 mps 743 mmHg 57%
    09:00 +25°C° 0 mm 2 mps 743 mmHg 53%
    10:00 +27°C° 0 mm 2 mps 743 mmHg 49%
    11:00 +28°C° 0 mm 2 mps 743 mmHg 47%
    12:00 +29°C° 0 mm 2 mps 742 mmHg 45%
    13:00 +30°C° 0 mm 2 mps 742 mmHg 43%
    14:00 +30°C° 0 mm 2 mps 742 mmHg 43%
    15:00 +30°C° 0 mm 2 mps 742 mmHg 44%
    16:00 +30°C° 0 mm 2 mps 741 mmHg 45%
    17:00 +29°C° 0 mm 2 mps 741 mmHg 51%
    18:00 +27°C° 0 mm 2 mps 741 mmHg 58%
    19:00 +25°C° 0 mm 3 mps 741 mmHg 65%
    20:00 +24°C° 0 mm 2 mps 741 mmHg 69%
    21:00 +23°C° 0 mm 2 mps 741 mmHg 73%
    22:00 +20°C° 0 mm 2 mps 741 mmHg 76%
    23:00 +20°C° 0 mm 2 mps 741 mmHg 77%

    1 July, Monday

    Time Temperature Precipitation Wind Pressure Humidity
    00:00 +19°C° 0 mm 2 mps 740 mmHg 77%
    01:00 +19°C° 0 mm 3 mps 740 mmHg 77%
    02:00 +19°C° 0 mm 3 mps 740 mmHg 80%
    03:00 +18°C° 0 mm 3 mps 740 mmHg 82%
    04:00 +18°C° 0 mm 3 mps 739 mmHg 84%
    05:00 +20°C° 0 mm 4 mps 739 mmHg 78%
    06:00 +22°C° 0 mm 4 mps 739 mmHg 72%
    07:00 +25°C° 0 mm 5 mps 739 mmHg 66%
    08:00 +26°C° 0 mm 5 mps 739 mmHg 64%
    09:00 +28°C° 0 mm 5 mps 739 mmHg 61%
    10:00 +29°C° 0 mm 5 mps 739 mmHg 58%
    11:00 +30°C° 0 mm 5 mps 739 mmHg 56%
    12:00 +32°C° 0 mm 5 mps 739 mmHg 53%
    13:00 +33°C° 0 mm 5 mps 739 mmHg 50%
    14:00 +33°C° 0.1 mm 5 mps 738 mmHg 52%
    15:00 +32°C° 0.1 mm 5 mps 738 mmHg 54%
    16:00 +32°C° 0.1 mm 4 mps 738 mmHg 56%
    17:00 +28°C° 5.7 mm 4 mps 738 mmHg 68%
    18:00 +24°C° 5.7 mm 3 mps 738 mmHg 80%
    19:00 +19°C° 5.7 mm 3 mps 738 mmHg 91%
    20:00 +19°C° 0.1 mm 3 mps 738 mmHg 91%
    21:00 +18°C° 0.1 mm 3 mps 738 mmHg 91%
    22:00 +18°C° 0.1 mm 2 mps 738 mmHg 91%
    23:00 +18°C° 0.1 mm 2 mps 738 mmHg 91%

    2 July, Tuesday

    Time Temperature Precipitation Wind Pressure Humidity
    00:00 +18°C° 0.1 mm 2 mps 738 mmHg 91%
    01:00 +19°C° 0.1 mm 2 mps 738 mmHg 92%
    02:00 +19°C° 0.1 mm 3 mps 738 mmHg 92%
    03:00 +19°C° 0.1 mm 3 mps 738 mmHg 93%
    04:00 +19°C° 0.1 mm 3 mps 738 mmHg 93%
    05:00 +19°C° 0 mm 4 mps 738 mmHg 87%
    06:00 +20°C° 0 mm 4 mps 738 mmHg 81%
    07:00 +21°C° 0 mm 5 mps 739 mmHg 76%
    08:00 +22°C° 0 mm 5 mps 739 mmHg 71%
    09:00 +23°C° 0 mm 5 mps 739 mmHg 67%
    10:00 +25°C° 0 mm 5 mps 740 mmHg 62%
    11:00 +24°C° 0.1 mm 6 mps 740 mmHg 60%
    12:00 +24°C° 0.1 mm 6 mps 740 mmHg 59%
    13:00 +24°C° 0.1 mm 6 mps 739 mmHg 57%
    14:00 +24°C° 0 mm 6 mps 739 mmHg 55%
    15:00 +24°C° 0 mm 6 mps 739 mmHg 52%
    16:00 +24°C° 0 mm 6 mps 739 mmHg 50%
    17:00 +22°C° 0 mm 5 mps 740 mmHg 56%
    18:00 +21°C° 0 mm 4 mps 740 mmHg 62%
    19:00 +19°C° 0 mm 3 mps 740 mmHg 68%
    20:00 +18°C° 0 mm 3 mps 740 mmHg 69%
    21:00 +17°C° 0 mm 3 mps 740 mmHg 71%
    22:00 +16°C° 0 mm 3 mps 741 mmHg 73%
    23:00 +14°C° 0 mm 3 mps 741 mmHg 75%
    Show more